Back to catalog

IRIDE-MS2-HEO-6

AliveScienceSSO
NORAD 64576·PAYLOAD·🇮🇹 Italy

Launched Jun 23, 2025 from Vandenberg Space Force Base

Loading…

Next Passes (next 24 hours)

TLE

FreshSource: Space-Track

Epoch: Sep 14, 2026, 13:43 UTC

1 64576U 25135BA  26257.57209995  .00001140  00000-0  11818-3 0  9990
2 64576  97.7800  10.5813 0002222  77.6074 282.5393 14.91937279 67218

Track IRIDE-MS2-HEO-6 in real time with AllMySat

Download on the App Store